GFSSE_250_rhum_021.txt.gz
RH
86 80 54 36 45 52 91 94 100 100 91 61 62 70 60 53 64 59 55 62 56 46 42 50 52 41 38 32 31 29 24 32 41 33 34 40 42 32 40 45 37 33 31
73 64 57 82 96 100 100 60 66 71 69 66 65 69 52 53 56 43 35 33 22 30 36 40 24 32 36 26 24 26 35 32 39 38 26 40 51 46 43 35 46 33 40
52 68 93 88 100 99 94 69 58 62 68 68 59 48 37 34 22 22 22 30 19 31 22 27 46 34 39 35 41 43 45 46 52 65 51 60 61 57 57 50 40 50 49
94 91 94 97 58 59 66 76 68 56 47 45 29 25 24 16 16 19 23 27 28 57 60 72 73 69 78 87 77 80 78 94 96 93 89 85 67 63 61 56 100 86 71
100 87 74 58 60 80 84 56 20 25 15 13 15 15 14 16 21 38 50 81 78 90 90 78 95 96 100 98 100 94 99 87 63 80 87 72 56 48 51 58 72 85 100
73 67 72 74 85 70 48 15 16 12 10 12 14 18 22 32 38 37 54 47 42 39 41 44 60 67 58 59 50 54 74 70 59 81 85 58 46 41 46 99 83 94 100
78 77 77 55 36 14 10 10 10 12 14 17 22 23 25 26 28 31 32 33 36 41 48 44 45 49 47 41 38 38 46 68 68 53 41 37 37 39 66 93 100 100 96
77 60 30 16 11 10 10 12 13 16 19 18 18 20 23 26 31 32 32 37 46 51 56 58 53 47 49 46 42 38 32 30 36 35 30 28 33 44 74 100 100 100 100
24 11 10 10 12 13 12 15 15 19 20 22 24 26 28 32 33 33 36 40 42 45 46 53 63 60 58 62 53 39 34 29 27 25 27 25 38 50 80 92 100 100 100
10 9 11 14 17 17 21 24 27 28 30 36 35 36 33 37 43 42 58 52 47 44 41 38 41 59 65 65 68 68 46 40 42 42 37 34 46 54 83 99 100 100 100
13 15 20 24 26 25 26 26 28 29 28 33 41 39 44 45 54 50 48 49 59 63 63 48 43 39 48 57 60 64 69 64 46 41 53 50 51 49 62 98 100 100 100
21 26 23 25 24 24 28 28 30 34 34 34 35 42 44 40 35 32 32 34 36 39 56 57 63 76 78 50 42 48 56 60 62 57 54 47 54 59 80 97 100 100 100
19 21 24 24 26 26 26 28 29 29 33 37 41 42 39 42 44 45 43 39 38 42 37 37 42 62 72 70 65 76 48 47 55 58 59 55 44 43 72 100 100 100 100
22 22 26 31 33 40 48 54 43 39 41 42 46 48 49 46 44 44 44 40 42 51 56 58 55 48 50 57 62 63 74 79 48 47 52 53 47 40 42 58 100 100 100
25 36 64 62 57 53 54 56 58 58 54 52 53 54 57 53 52 56 59 59 59 56 55 59 58 57 55 54 57 67 57 57 57 52 48 43 50 46 38 38 80 100 79
67 82 66 64 61 58 55 56 59 64 58 48 39 34 35 39 46 53 51 44 42 44 49 48 46 50 50 46 46 46 50 68 69 56 46 54 48 41 44 35 36 72 100
60 75 52 47 45 39 41 52 52 40 36 36 38 37 38 40 45 44 41 35 32 34 36 36 40 41 40 41 42 41 41 45 50 61 65 62 59 53 40 40 40 38 79
37 36 28 25 24 27 26 26 25 29 34 41 49 53 55 54 53 57 60 57 50 49 49 48 42 42 45 45 46 50 45 43 44 45 48 57 55 60 62 55 43 37 56
19 17 18 18 21 24 28 31 36 45 53 59 61 63 68 74 76 82 79 70 60 55 55 52 53 51 55 58 60 58 55 56 51 47 45 46 45 46 50 54 53 52 38
24 24 28 28 30 31 32 36 47 60 52 47 44 46 45 45 46 49 52 52 50 53 55 57 58 56 50 42 38 45 51 52 56 56 58 57 57 56 48 46 47 46 48
27 24 25 28 29 33 47 72 76 61 57 58 62 64 62 59 57 64 65 67 69 73 74 65 58 56 57 59 55 53 54 55 51 48 52 58 58 56 57 49 45 45 44
32 31 27 30 41 57 69 68 63 64 73 74 78 84 89 84 84 85 86 83 66 61 60 57 55 54 54 52 52 52 51 53 60 59 54 55 52 50 51 56 55 54 52
33 36 42 48 58 66 64 68 73 79 83 78 80 84 80 81 75 75 77 73 75 64 54 56 51 48 48 45 47 45 49 45 43 50 55 58 58 58 50 50 56 55 56
38 78 90 91 88 96 98 96 84 72 69 67 64 62 65 66 63 66 59 54 55 55 53 46 48 58 61 53 58 49 43 50 48 48 45 45 48 51 57 52 47 48 46
72 86 91 84 75 76 77 69 67 67 62 62 65 67 56 58 70 58 54 57 64 65 64 68 65 67 62 58 50 46 45 49 46 43 48 41 44 43 50 50 51 59 55
83 82 77 80 76 75 70 65 58 55 56 60 63 69 77 57 65 65 68 67 73 75 66 64 62 57 51 44 38 38 39 42 46 46 42 40 34 40 41 39 40 42 49

GFSSE_250_rhum_024.txt.gz
RH
31 46 44 49 45 37 37 51 91 92 93 99 92 100 100 92 77 86 77 53 36 60 59 52 35 35 38 44 48 37 45 51 49 44 44 46 49 59 57 54 48 38 57
55 63 53 47 37 48 57 98 99 100 99 100 83 94 90 84 84 63 37 29 25 30 24 22 21 18 34 40 29 49 75 62 42 69 51 62 65 44 39 48 53 53 46
54 66 52 77 62 67 94 100 91 96 94 100 95 85 63 44 44 25 16 16 17 16 16 18 19 20 33 38 70 67 49 36 77 76 62 65 62 54 72 68 61 57 49
40 50 72 94 100 100 100 100 100 100 95 47 16 16 21 19 13 16 18 20 21 36 50 44 44 69 81 78 54 80 79 66 66 84 79 72 88 74 76 95 82 70 61
46 67 100 100 100 100 100 100 95 73 33 12 8 9 10 13 13 21 29 29 63 59 61 80 88 76 79 80 63 69 91 95 100 96 99 98 97 88 100 100 90 73 78
100 100 99 100 100 100 79 62 44 15 9 9 10 12 13 16 18 20 22 25 28 28 36 39 39 85 68 46 38 41 51 53 62 95 96 100 100 88 96 100 90 98 100
82 99 100 88 74 35 17 16 13 10 12 14 15 16 18 19 20 20 20 21 22 24 26 28 34 37 40 43 45 44 43 41 37 38 45 77 77 84 98 87 81 72 99
81 93 80 50 19 14 10 11 14 16 17 18 18 20 21 24 27 28 30 29 30 32 32 31 31 35 45 56 59 58 52 43 40 39 43 43 69 72 99 86 79 54 86
74 62 36 12 10 11 15 15 18 20 23 26 30 36 38 40 42 45 52 50 52 60 68 58 41 37 40 54 62 59 58 55 40 37 32 31 36 46 56 62 48 47 100
30 19 10 12 17 17 20 22 24 24 24 23 26 26 28 28 28 28 29 29 31 35 38 60 62 80 74 55 47 52 56 58 60 49 42 34 27 25 26 54 70 60 100
12 12 16 19 19 22 23 23 27 27 27 30 33 34 31 32 30 28 30 33 30 27 28 29 33 40 58 81 88 68 50 52 60 64 54 45 43 34 24 29 62 58 100
14 16 19 20 24 32 42 45 36 32 34 36 37 35 36 38 44 46 46 47 44 35 27 31 32 33 33 41 47 55 72 58 48 55 59 55 53 52 39 38 44 54 94
17 19 24 28 33 39 40 41 42 43 42 38 35 39 39 37 41 42 49 55 53 52 51 48 40 33 33 35 37 39 41 50 71 49 49 55 57 51 48 49 55 54 66
19 19 25 27 28 30 34 35 34 30 29 30 33 34 35 38 41 46 50 58 55 52 45 38 38 39 37 34 33 30 32 34 37 46 50 41 49 56 52 47 46 52 49
19 34 45 45 38 36 36 32 31 27 25 28 34 35 38 42 48 51 50 55 60 64 63 56 47 47 49 43 39 38 36 35 32 37 42 41 43 42 49 50 44 45 56
26 25 28 31 34 26 25 33 35 34 37 39 44 53 58 56 53 53 51 48 45 41 39 45 52 60 59 60 54 47 43 42 40 38 37 38 37 41 43 40 49 39 54
16 17 18 20 21 22 26 21 22 27 30 32 44 57 62 60 60 58 53 48 45 44 41 37 38 42 49 56 56 56 50 48 50 53 46 43 40 39 39 41 40 42 40
21 21 22 21 24 26 26 28 28 29 30 44 60 55 65 69 65 64 71 72 68 67 67 62 60 62 65 63 57 55 59 59 54 43 45 63 53 45 45 42 37 39 39
21 24 27 29 28 24 24 26 31 37 54 65 69 79 73 73 75 74 67 61 54 54 51 51 60 68 68 68 63 62 61 61 59 57 62 58 48 66 61 51 45 46 36
21 23 29 30 32 35 35 50 57 69 86 93 87 88 88 77 65 57 54 48 47 54 65 82 97 83 76 71 79 81 66 56 56 58 53 46 45 54 51 68 61 47 42
26 28 29 30 33 43 48 56 63 66 75 84 80 70 63 58 59 59 61 84 88 77 68 70 65 64 62 60 58 60 60 69 64 49 49 51 59 54 48 48 54 68 54
29 27 28 34 47 63 76 79 77 76 72 59 52 55 62 67 66 64 68 72 71 64 60 61 68 68 62 62 59 61 62 61 75 69 57 54 51 50 50 48 45 52 62
31 38 49 63 76 80 78 76 72 70 62 61 65 71 69 66 68 69 66 65 69 73 69 69 75 79 66 59 58 62 55 58 65 66 68 72 48 47 53 51 49 45 46
47 60 83 90 81 76 83 77 70 60 54 57 62 63 65 63 60 59 62 65 64 64 69 71 84 93 89 81 76 61 70 70 64 60 55 62 60 46 41 42 46 44 44
81 97 100 100 96 93 81 77 75 71 72 72 62 54 54 58 61 76 70 63 74 78 84 74 75 69 69 73 75 74 62 62 69 58 48 35 39 45 35 37 38 42 42
86 97 100 96 94 86 79 74 71 70 56 59 53 53 53 60 63 79 85 87 87 94 87 84 78 67 63 56 54 50 53 51 49 48 51 54 30 20 27 28 30 35 43

GFSSE_250_rhum_030.txt.gz
RH
41 51 47 29 34 24 29 36 40 40 39 41 46 69 82 98 99 92 56 60 36 47 62 42 42 21 43 55 62 74 68 33 21 26 17 18 26 48 93 100 100 100 100
41 56 36 35 35 23 23 28 38 44 58 66 92 97 90 80 76 50 22 14 19 21 13 13 15 38 79 60 46 52 30 25 52 75 38 37 25 50 32 44 68 82 89
45 40 45 43 30 27 33 40 59 62 85 100 100 91 82 62 33 15 11 11 10 10 9 11 13 15 17 30 22 29 18 22 22 74 100 100 95 79 47 68 100 100 100
46 34 44 34 31 39 56 76 91 78 100 100 88 68 34 26 13 9 8 9 10 12 14 15 16 16 20 19 19 24 42 48 46 38 80 100 100 100 100 100 100 100 100
53 43 49 45 41 50 81 94 100 100 100 70 58 29 18 9 9 10 12 13 15 24 21 30 28 22 20 20 22 24 25 33 41 54 71 58 64 73 58 99 100 100 100
57 40 33 44 59 98 100 100 100 96 77 46 32 12 10 13 15 15 18 19 20 19 21 20 20 22 22 22 21 22 23 23 24 26 27 31 47 99 66 51 48 94 100
51 48 61 97 100 100 100 100 93 59 39 19 10 10 12 14 15 16 17 18 20 20 20 20 20 18 20 22 21 21 22 24 27 38 38 35 28 32 56 67 85 85 79
75 100 100 100 100 100 97 81 58 36 13 10 12 14 16 17 19 19 21 24 25 26 26 25 22 22 24 22 21 22 22 22 23 24 41 41 40 37 38 68 94 99 100
100 100 100 100 100 90 70 48 18 11 11 14 15 15 15 17 20 23 29 30 33 36 36 35 33 33 33 30 31 31 25 23 23 25 26 28 45 43 38 43 73 88 87
100 100 100 100 84 58 24 12 12 16 17 18 19 20 22 23 26 28 31 34 33 32 36 42 45 47 47 42 38 41 42 39 34 30 30 27 26 41 44 35 39 68 80
100 100 97 79 51 17 12 16 17 18 18 19 20 22 23 24 23 23 27 30 32 35 38 37 41 45 50 52 54 52 52 51 51 48 50 36 31 28 34 45 39 43 80
99 82 66 33 12 13 17 24 22 19 17 17 17 17 18 19 20 26 25 29 31 31 36 33 34 36 36 36 38 37 41 46 52 53 68 56 49 40 31 29 44 38 36
75 34 12 12 14 19 25 24 24 23 24 22 20 17 17 20 22 21 24 25 32 37 42 47 49 48 49 49 44 46 38 36 36 36 57 71 58 60 54 41 31 41 43
16 12 15 17 22 26 24 21 20 20 19 20 21 20 19 23 23 24 25 35 47 58 64 69 70 73 73 66 60 54 50 45 43 42 39 50 40 59 65 72 56 39 37
11 13 18 19 19 16 16 16 16 16 16 20 18 18 18 21 25 31 38 42 46 55 57 58 58 54 52 52 46 45 48 51 52 50 47 51 53 46 52 62 73 72 49
13 15 16 17 16 15 16 16 20 21 25 28 28 26 26 30 35 42 48 54 57 60 59 56 54 57 63 60 63 72 71 76 73 64 58 52 57 54 52 53 62 69 73
16 16 15 16 16 15 16 19 23 24 26 27 28 33 39 45 41 45 48 54 56 56 52 49 47 49 51 52 52 56 57 61 68 81 83 55 48 45 39 48 50 62 68
14 14 20 22 21 23 23 25 26 25 23 25 31 34 43 42 39 49 47 56 62 61 58 61 63 61 60 61 64 64 66 68 73 87 86 83 83 88 85 66 41 49 57
19 20 25 24 24 23 23 26 28 34 35 38 41 41 48 45 52 59 67 68 67 65 67 71 68 63 60 60 57 62 68 72 80 83 89 88 88 75 87 91 78 71 41
20 25 22 21 22 28 48 45 45 46 48 50 49 43 55 46 48 52 52 55 56 58 58 58 62 62 67 71 72 68 66 56 53 66 72 77 89 85 75 80 99 96 73
23 22 23 24 29 35 44 42 44 40 36 40 42 45 42 41 45 44 47 49 55 55 53 61 66 69 74 82 85 80 73 69 80 83 93 74 66 77 88 96 84 71 92
22 24 24 28 36 45 46 41 42 39 36 43 52 50 48 48 52 54 52 49 54 65 71 69 64 65 67 65 61 60 64 74 75 82 86 96 88 87 75 74 83 85 72
22 22 27 40 52 52 42 40 42 47 63 68 56 46 48 54 56 56 64 74 79 82 92 92 75 67 67 76 76 72 69 64 70 92 98 92 83 84 75 65 64 71 73
21 24 36 55 52 52 52 50 56 64 61 54 52 58 60 61 67 74 79 78 79 80 75 74 77 74 71 62 66 68 69 62 64 60 72 82 87 75 73 62 50 45 44
26 40 58 53 52 57 65 63 63 69 67 65 65 70 73 76 74 78 87 93 91 71 65 65 64 67 64 67 74 80 92 90 80 57 51 66 70 59 47 41 37 37 28
53 61 65 64 60 57 65 70 71 67 63 66 72 71 70 78 79 78 76 78 77 94 89 79 63 74 83 80 77 67 52 51 37 29 21 21 21 30 28 21 23 16 16

GFSSE_250_rhum_033.txt.gz
RH
38 49 42 49 54 44 42 51 53 39 27 25 27 32 52 64 65 78 80 78 73 44 20 20 12 9 9 11 15 14 17 17 19 38 46 63 96 89 85 98 100 100 100
48 44 58 54 43 35 26 26 35 35 34 31 36 62 72 90 89 86 75 44 24 14 8 8 8 10 11 13 18 26 30 31 45 36 54 39 24 43 67 79 100 100 100
55 64 59 52 47 36 33 40 36 39 43 55 72 92 92 90 92 57 19 12 10 8 8 9 11 18 25 20 19 41 99 100 98 100 100 68 82 42 46 48 38 100 100
72 67 67 54 58 37 43 45 40 48 66 96 97 98 89 76 53 17 10 8 10 11 13 15 18 21 23 25 25 24 24 22 23 24 38 47 59 100 80 65 74 96 100
70 60 65 55 60 49 50 54 80 90 97 95 96 90 71 39 13 10 11 14 16 17 19 20 20 20 22 23 22 22 22 22 23 27 24 39 55 91 100 87 100 80 100
52 57 63 70 50 51 79 92 100 100 90 89 89 66 28 11 10 12 14 15 15 15 15 15 16 17 18 19 20 21 22 23 26 27 32 28 29 45 93 100 76 88 97
72 72 75 67 83 100 100 100 100 97 99 80 54 19 10 12 13 14 15 15 16 17 16 17 19 19 19 18 17 19 21 24 24 26 24 27 40 47 63 100 78 76 90
100 100 96 99 100 100 100 100 99 85 70 40 12 12 12 14 14 17 18 18 18 19 22 23 24 26 26 25 23 22 21 22 25 32 31 29 29 31 34 47 49 54 96
97 97 100 100 100 100 100 100 89 64 27 12 13 14 15 17 18 18 19 20 19 21 26 28 30 29 27 30 32 31 29 25 25 34 20 30 36 32 32 40 36 42 55
100 100 100 100 100 100 97 83 54 25 14 15 16 17 17 18 19 18 20 22 22 27 28 30 36 36 33 33 34 31 32 32 30 42 29 23 24 26 34 34 46 41 44
100 100 99 100 100 97 80 49 23 16 18 16 17 17 17 16 16 16 20 21 20 24 25 26 31 37 38 41 42 41 42 42 40 38 39 33 31 27 25 33 36 45 40
100 100 100 100 96 71 44 18 16 19 20 20 20 20 19 18 17 17 16 17 18 19 22 24 30 40 45 46 48 52 52 54 47 48 50 43 38 36 31 26 28 37 51
100 100 100 95 60 35 18 20 24 22 21 17 16 15 15 15 15 16 17 18 21 23 29 35 38 42 46 49 52 57 51 46 47 45 51 53 47 47 45 43 34 26 32
100 100 89 64 32 16 18 23 22 18 16 16 18 19 19 19 20 19 19 22 28 37 39 41 41 44 43 45 45 42 41 44 42 38 39 45 54 49 53 53 53 53 35
96 80 53 18 16 16 18 16 15 15 14 16 20 21 21 22 21 22 26 26 32 36 38 41 46 56 58 54 49 47 43 42 43 42 42 45 43 49 44 45 52 62 73
52 21 14 14 14 14 16 14 14 15 15 18 21 24 22 22 25 32 40 44 47 45 47 52 57 58 57 53 55 60 58 55 49 46 51 50 54 60 47 39 41 43 48
15 14 14 16 14 20 20 19 21 21 20 20 22 23 31 37 44 46 42 40 41 40 37 39 46 43 43 49 51 55 61 62 61 62 57 51 66 64 65 70 54 52 44
14 14 14 15 26 89 100 81 73 61 38 30 29 38 42 43 36 36 39 41 40 38 38 38 39 37 39 46 54 56 64 71 75 82 87 83 84 70 74 69 69 68 61
14 13 16 42 32 50 100 90 62 49 36 37 35 32 32 34 43 47 50 47 46 41 43 50 52 48 47 51 49 56 63 68 78 88 97 100 100 95 94 94 78 67 54
14 15 31 26 27 57 56 42 29 36 43 35 31 34 33 38 44 46 46 47 46 47 55 56 61 64 68 69 65 63 68 79 80 60 52 58 68 90 89 91 93 100 100
16 17 19 20 21 23 23 26 36 41 35 32 34 39 44 46 51 55 53 52 57 62 63 56 47 41 45 52 59 61 61 53 56 66 70 68 60 58 65 68 64 78 95
23 24 27 27 25 23 21 30 38 38 36 43 44 40 42 44 48 48 49 49 48 47 42 42 44 50 58 58 59 62 66 74 69 77 70 68 72 79 76 62 61 69 69
21 24 26 26 21 20 27 40 45 46 49 49 46 46 51 53 54 52 47 44 43 41 43 48 54 57 67 82 84 77 80 85 95 100 100 100 100 92 95 99 94 92 89
21 22 20 19 21 37 52 53 48 47 45 43 44 49 51 58 52 46 42 43 47 50 56 62 71 74 85 92 90 93 89 82 83 91 97 96 96 100 94 91 89 77 78
23 20 19 21 44 64 58 45 43 43 46 48 52 61 64 63 64 59 60 64 68 62 61 66 68 58 65 72 72 75 78 72 52 40 39 64 84 86 74 41 32 29 30
20 19 19 43 49 49 39 39 44 51 55 62 71 74 86 90 74 67 68 68 69 64 70 74 71 60 58 56 45 28 24 26 22 17 14 11 14 19 19 16 17 17 19

GFSSE_250_rhum_039.txt.gz
RH
67 70 75 88 79 83 73 73 74 71 54 43 31 31 34 38 39 28 35 42 52 78 68 81 67 38 19 7 6 6 7 8 9 11 10 11 15 19 45 60 99 84 100
84 93 100 86 92 84 87 79 70 50 46 36 36 41 54 56 40 40 58 71 84 90 76 62 34 11 8 7 7 8 10 10 11 13 14 21 28 92 100 99 100 100 100
80 76 73 95 92 77 67 56 48 42 38 44 53 73 61 46 55 63 80 93 92 73 57 25 12 9 10 10 11 11 13 13 14 14 16 26 61 44 47 86 68 100 100
91 97 96 79 75 75 70 49 46 37 48 62 73 64 53 58 73 97 89 87 70 47 25 12 10 11 13 14 14 15 17 18 18 19 17 20 49 100 94 66 89 98 100
87 82 90 88 89 62 53 48 55 72 79 86 71 60 80 68 83 77 83 72 48 22 11 11 12 12 12 14 14 16 16 17 17 18 20 20 19 22 94 100 89 77 92
76 91 100 97 78 53 59 73 94 83 79 84 73 67 93 86 90 88 76 58 32 12 12 12 12 14 13 13 15 16 15 17 17 17 18 18 20 22 24 68 100 100 94
97 99 92 93 85 78 82 86 88 93 95 90 94 98 82 78 82 79 66 41 14 15 15 14 13 13 14 13 14 15 16 16 18 21 20 23 21 23 35 41 33 32 52
100 85 91 84 94 91 97 100 100 100 100 100 99 92 72 88 84 72 49 18 16 17 17 16 15 14 15 15 17 17 18 20 20 19 18 20 28 34 35 26 30 52 52
80 71 92 100 94 100 98 83 100 100 94 95 94 85 91 87 82 62 24 16 17 18 16 16 17 17 16 17 19 19 21 23 26 25 24 20 19 25 39 29 31 31 25
79 99 100 100 98 100 92 100 100 100 99 96 99 95 93 88 67 30 18 16 14 13 14 15 15 16 16 17 18 19 21 24 28 29 26 27 26 24 23 32 30 24 31
100 100 100 96 99 100 100 100 100 100 99 99 95 97 85 62 28 18 17 15 14 15 18 19 19 18 19 20 23 27 32 32 34 34 35 32 30 30 31 31 25 24 28
100 100 100 100 100 100 96 100 97 95 100 100 97 85 44 19 16 14 15 16 15 18 22 23 24 24 26 31 34 33 32 31 33 33 31 34 36 33 30 31 33 29 26
100 100 100 96 100 100 99 96 98 99 100 97 80 26 16 16 20 22 21 20 20 22 24 25 24 27 32 34 35 36 37 36 36 35 36 32 32 34 33 31 33 34 33
100 100 100 100 100 97 96 93 100 100 98 70 32 17 26 66 72 64 48 30 33 36 33 33 33 31 32 32 32 34 40 42 41 41 38 35 35 37 36 32 29 29 29
100 100 100 94 91 82 77 88 88 83 42 21 17 34 83 78 84 81 66 58 44 40 44 41 37 33 33 34 36 41 44 43 42 40 41 40 44 46 44 42 38 37 37
100 98 96 88 85 95 72 62 36 20 19 44 65 87 78 77 82 83 45 30 38 46 45 42 43 45 49 48 48 49 54 53 51 50 47 45 51 61 62 64 63 56 50
94 95 82 75 48 39 25 23 24 31 54 90 100 99 100 85 74 30 25 26 37 42 39 39 42 46 53 54 54 57 58 60 53 49 48 48 50 50 51 57 70 74 73
78 73 52 41 44 36 73 100 100 78 54 70 84 92 68 34 21 19 20 35 39 38 36 35 34 34 34 36 52 63 67 69 67 63 56 47 42 43 54 53 51 57 68
45 36 50 67 88 96 100 100 100 100 64 58 48 32 22 22 21 19 28 50 45 36 33 33 34 37 40 42 43 46 51 61 58 57 62 60 52 43 39 47 57 68 67
24 22 58 79 96 100 100 100 100 100 95 77 45 24 22 19 19 20 42 66 45 37 35 37 40 44 47 53 56 60 64 63 62 64 62 56 49 42 45 52 62 70 80
24 24 70 86 71 73 74 99 100 100 64 24 19 19 19 18 18 23 50 58 48 44 42 38 38 38 38 38 36 36 41 45 47 44 43 45 56 61 63 70 67 70 74
49 34 22 23 21 18 18 19 17 17 18 19 19 19 19 20 36 54 57 48 42 38 34 34 36 37 39 41 43 43 42 43 46 52 60 71 72 89 99 98 98 97 98
18 19 19 18 18 18 18 18 17 16 15 16 18 21 36 48 50 46 40 40 41 39 37 36 36 38 41 42 37 39 44 53 56 67 79 78 75 80 88 92 100 100 100
18 18 17 16 15 16 16 15 15 16 22 35 41 36 36 39 37 39 42 38 33 38 48 52 46 43 44 45 49 51 57 61 63 66 72 80 78 77 75 72 70 64 63
20 18 16 17 19 18 18 24 34 38 36 36 44 51 49 54 60 63 70 76 66 50 45 41 45 49 50 55 61 62 66 64 57 53 53 58 58 58 53 46 40 35 33
28 27 32 32 34 40 44 47 49 49 53 56 54 54 67 83 88 78 55 49 47 46 59 54 58 58 62 58 54 58 51 42 35 27 21 20 18 20 22 19 19 19 18